User: anonymous   Login
Location: Unspecified
(0.0000°N, 0.0000°E)
Time: 18:08:18
(UTC+00:00)
Language:

Landsat 3 - Orbit

View from above orbital plane
View from above orbital plane
View from above satellite
View from above satellite

Ground track
Ground track

The orbit data is extracted from the following two-line orbital elements,

1 10702U 78026A   18114.94805640 -.00000207 +00000-0 -11965-3 0  9990
2 10702 098.7597 133.8484 0015626 074.4060 344.5500 13.96664692046136
Epoch (UTC): 24 April 2018 22:45:12
Eccentricity: 0.0015626
inclination: 98.7597°
perigee height: 894 km
apogee height: 917 km
right ascension of ascending node: 133.8484°
argument of perigee: 74.4060°
revolutions per day: 13.96664692
mean anomaly at epoch: 344.5500°
orbit number at epoch: 4613

The dashed part of the orbit path shows where the satellite is in the earth's shadow,  

DLR